,,PA_Meas_PMT16A,,PR_Meas_QMR101_102,,RH_Meas_QMH101,,SR_Meas_QMS101,,TA_Meas_QMH101,,GenWind,,GenWind,
time,status,PA,status,PR,status,RH,status,SR,status,TA,status,DirAvg,status,SpdAvg,
2011-10-15, 00:00:04,VALID,916.882,VALID,0,VALID,96.3142,VALID,0,VALID,20.5789,VALID,11,VALID,0,
2011-10-15, 00:01:04,VALID,916.849,VALID,0,VALID,96.3066,VALID,0,VALID,20.6194,VALID,11,VALID,0,
2011-10-15, 00:02:04,VALID,916.81,VALID,0,VALID,96.2837,VALID,0.107441,VALID,20.5157,VALID,11,VALID,0,
2011-10-15, 00:03:04,VALID,916.787,VALID,0,VALID,96.299,VALID,0,VALID,20.639,VALID,11,VALID,0.151562,
2011-10-15, 00:04:04,VALID,916.751,VALID,0,VALID,96.2761,VALID,0,VALID,20.6179,VALID,10,VALID,0.292578,
2011-10-15, 00:05:04,VALID,916.738,VALID,0,VALID,96.2533,VALID,0,VALID,20.5968,VALID,11,VALID,0.116016,
2011-10-15, 00:06:04,VALID,916.74,VALID,0,VALID,96.2151,VALID,0,VALID,20.6374,VALID,10,VALID,0.390234,
2011-10-15, 00:07:04,VALID,916.747,VALID,0,VALID,96.1618,VALID,0,VALID,20.5952,VALID,10,VALID,0.226172,
2011-10-15, 00:08:04,VALID,916.722,VALID,0,VALID,96.1541,VALID,0,VALID,20.678,VALID,10,VALID,0.396094,
2011-10-15, 00:09:04,VALID,916.71,VALID,0,VALID,96.116,VALID,0,VALID,20.6358,VALID,11,VALID,0.205469,
2011-10-15, 00:10:04,VALID,916.66,VALID,0,VALID,96.116,VALID,0,VALID,20.6358,VALID,10,VALID,0,
2011-10-15, 00:11:04,VALID,916.642,VALID,0,VALID,96.0703,VALID,0,VALID,20.7154,VALID,11,VALID,0,
2011-10-15, 00:12:04,VALID,916.612,VALID,0,VALID,96.0093,VALID,0,VALID,20.6959,VALID,10,VALID,0.0847656,
2011-10-15, 00:13:04,VALID,916.606,VALID,0,VALID,96.0322,VALID,0,VALID,20.6748,VALID,11,VALID,0,
2011-10-15, 00:14:04,VALID,916.599,VALID,0,VALID,96.0245,VALID,0,VALID,20.7771,VALID,10,VALID,0,
2011-10-15, 00:15:04,VALID,916.615,VALID,0,VALID,95.8873,VALID,0,VALID,20.756,VALID,10,VALID,0.730469,
2011-10-15, 00:16:04,VALID,916.6,VALID,0,VALID,95.8263,VALID,0,VALID,20.717,VALID,11,VALID,0.912109,
2011-10-15, 00:17:04,VALID,916.597,VALID,0,VALID,95.7806,VALID,0,VALID,20.6537,VALID,11,VALID,0.731641,
2011-10-15, 00:18:04,VALID,916.587,VALID,0,VALID,95.7577,VALID,0,VALID,20.7396,VALID,11,VALID,0.6,
2011-10-15, 00:19:04,VALID,916.573,VALID,0,VALID,95.6967,VALID,0,VALID,20.6975,VALID,10,VALID,0.530469,
2011-10-15, 00:20:04,VALID,916.575,VALID,0,VALID,95.712,VALID,0,VALID,20.6374,VALID,11,VALID,0.281641,
2011-10-15, 00:21:04,VALID,916.541,VALID,0,VALID,95.7425,VALID,0,VALID,20.5547,VALID,11,VALID,0.279687,
2011-10-15, 00:22:04,VALID,916.561,VALID,0,VALID,95.7425,VALID,0,VALID,20.6795,VALID,11,VALID,0.131641,
2011-10-15, 00:23:04,VALID,916.536,VALID,0,VALID,95.8187,VALID,0,VALID,20.6163,VALID,11,VALID,0,
2011-10-15, 00:24:04,VALID,916.523,VALID,0,VALID,95.8645,VALID,0.107441,VALID,20.6132,VALID,11,VALID,0,
2011-10-15, 00:25:04,VALID,916.521,VALID,0,VALID,95.895,VALID,0.107441,VALID,20.6553,VALID,11,VALID,0,
2011-10-15, 00:26:04,VALID,916.503,VALID,0,VALID,95.9559,VALID,0,VALID,20.6748,VALID,11,VALID,0.174609,
2011-10-15, 00:27:04,VALID,916.504,VALID,0,VALID,95.9636,VALID,0.107441,VALID,20.7365,VALID,11,VALID,0.425781,
2011-10-15, 00:28:04,VALID,916.509,VALID,0,VALID,95.9712,VALID,0,VALID,20.7576,VALID,10,VALID,0.721875,
2011-10-15, 00:29:04,VALID,916.474,VALID,0,VALID,95.8111,VALID,0,VALID,20.756,VALID,10,VALID,0.725391,
2011-10-15, 00:30:04,VALID,916.473,VALID,0,VALID,95.7577,VALID,0,VALID,20.717,VALID,11,VALID,0.690234,
2011-10-15, 00:31:04,VALID,916.457,VALID,0,VALID,95.7654,VALID,0,VALID,20.6748,VALID,11,VALID,0.577344,
2011-10-15, 00:32:04,VALID,916.458,VALID,0,VALID,95.773,VALID,0,VALID,20.6975,VALID,11,VALID,0.600781,
2011-10-15, 00:33:04,VALID,916.407,VALID,0,VALID,95.7501,VALID,0,VALID,20.7201,VALID,11,VALID,0.809375,
2011-10-15, 00:34:04,VALID,916.419,VALID,0,VALID,95.7196,VALID,0,VALID,20.6585,VALID,11,VALID,0.636719,
2011-10-15, 00:35:04,VALID,916.41,VALID,0,VALID,95.712,VALID,0,VALID,20.5757,VALID,11,VALID,0.533984,
2011-10-15, 00:36:04,VALID,916.409,VALID,0,VALID,95.6281,VALID,0,VALID,20.5789,VALID,11,VALID,0.615625,
2011-10-15, 00:37:04,VALID,916.373,VALID,0,VALID,95.5976,VALID,0,VALID,20.621,VALID,10,VALID,0.917969,
2011-10-15, 00:38:04,VALID,916.329,VALID,0,VALID,95.5367,VALID,0,VALID,20.5414,VALID,11,VALID,0.924609,
2011-10-15, 00:39:04,VALID,916.326,VALID,0,VALID,95.5214,VALID,0,VALID,20.5204,VALID,11,VALID,0.421875,
2011-10-15, 00:40:04,VALID,916.295,VALID,0,VALID,95.4833,VALID,0,VALID,20.5625,VALID,10,VALID,0.319531,
2011-10-15, 00:41:04,VALID,916.25,VALID,0,VALID,95.4909,VALID,0,VALID,20.5219,VALID,11,VALID,0.530859,
2011-10-15, 00:42:04,VALID,916.25,VALID,0,VALID,95.529,VALID,0,VALID,20.5009,VALID,11,VALID,0.285937,
2011-10-15, 00:43:04,VALID,916.231,VALID,0,VALID,95.5595,VALID,0,VALID,20.5414,VALID,11,VALID,0.188672,
2011-10-15, 00:44:04,VALID,916.214,VALID,0,VALID,95.5062,VALID,0,VALID,20.5219,VALID,11,VALID,0.346094,
2011-10-15, 00:45:04,VALID,916.224,VALID,0,VALID,95.468,VALID,0,VALID,20.4618,VALID,11,VALID,0.282422,
2011-10-15, 00:46:04,VALID,916.195,VALID,0,VALID,95.5214,VALID,0,VALID,20.525,VALID,11,VALID,0.421094,
2011-10-15, 00:47:04,VALID,916.209,VALID,0,VALID,95.5138,VALID,0,VALID,20.4829,VALID,11,VALID,0.418359,
2011-10-15, 00:48:04,VALID,916.171,VALID,0,VALID,95.5367,VALID,0,VALID,20.4018,VALID,11,VALID,0.106641,
2011-10-15, 00:49:04,VALID,916.173,VALID,0,VALID,95.5671,VALID,0,VALID,20.4634,VALID,11,VALID,0,
2011-10-15, 00:50:04,VALID,916.185,VALID,0,VALID,95.6205,VALID,0,VALID,20.465,VALID,11,VALID,0,
2011-10-15, 00:51:04,VALID,916.192,VALID,0,VALID,95.6434,VALID,0,VALID,20.486,VALID,11,VALID,0.273047,
2011-10-15, 00:52:04,VALID,916.175,VALID,0,VALID,95.7044,VALID,0,VALID,20.5266,VALID,11,VALID,0,
2011-10-15, 00:53:04,VALID,916.166,VALID,0,VALID,95.712,VALID,0,VALID,20.5461,VALID,11,VALID,0,
2011-10-15, 00:54:04,VALID,916.189,VALID,0,VALID,95.7196,VALID,0,VALID,20.4408,VALID,11,VALID,0,
2011-10-15, 00:55:04,VALID,916.17,VALID,0,VALID,95.7501,VALID,0,VALID,20.5867,VALID,11,VALID,0,
2011-10-15, 00:56:04,VALID,916.164,VALID,0,VALID,95.7654,VALID,0,VALID,20.4798,VALID,11,VALID,0,
2011-10-15, 00:57:04,VALID,916.156,VALID,0,VALID,95.7349,VALID,0,VALID,20.5641,VALID,11,VALID,0,
2011-10-15, 00:58:04,VALID,916.128,VALID,0,VALID,95.7196,VALID,0,VALID,20.4993,VALID,11,VALID,0,
2011-10-15, 00:59:04,VALID,916.095,VALID,0,VALID,95.6662,VALID,0,VALID,20.5383,VALID,11,VALID,0.294141,
2011-10-15, 01:00:04,VALID,916.091,VALID,0,VALID,95.6586,VALID,0,VALID,20.5157,VALID,11,VALID,0.194922,
2011-10-15, 01:01:04,VALID,916.081,VALID,0,VALID,95.6205,VALID,0,VALID,20.5999,VALID,11,VALID,0,
2011-10-15, 01:02:04,VALID,916.051,VALID,0,VALID,95.5824,VALID,0,VALID,20.5804,VALID,10,VALID,0.332422,
2011-10-15, 01:03:04,VALID,916.049,VALID,0,VALID,95.5748,VALID,0,VALID,20.5578,VALID,11,VALID,0,
2011-10-15, 01:04:04,VALID,916.033,VALID,0,VALID,95.6129,VALID,0,VALID,20.5773,VALID,10,VALID,0.00195313,
2011-10-15, 01:05:04,VALID,916.018,VALID,0,VALID,95.5443,VALID,0,VALID,20.5984,VALID,10,VALID,0.282813,
2011-10-15, 01:06:04,VALID,915.996,VALID,0,VALID,95.5214,VALID,0,VALID,20.5578,VALID,11,VALID,0.274219,
2011-10-15, 01:07:04,VALID,915.991,VALID,0,VALID,95.4833,VALID,0,VALID,20.6179,VALID,10,VALID,0.0402344,
2011-10-15, 01:08:04,VALID,915.994,VALID,0,VALID,95.4757,VALID,0,VALID,20.5984,VALID,11,VALID,0,
2011-10-15, 01:09:04,VALID,916.023,VALID,0,VALID,95.4528,VALID,0,VALID,20.5804,VALID,10,VALID,0.0449219,
2011-10-15, 01:10:04,VALID,915.973,VALID,0,VALID,95.4071,VALID,0.107441,VALID,20.5804,VALID,10,VALID,0.327734,
2011-10-15, 01:11:04,VALID,915.965,VALID,0,VALID,95.4223,VALID,0.107441,VALID,20.5804,VALID,11,VALID,0.133594,
2011-10-15, 01:12:04,VALID,915.946,VALID,0,VALID,95.4528,VALID,0,VALID,20.5204,VALID,10,VALID,0.394531,
2011-10-15, 01:13:04,VALID,915.932,VALID,0,VALID,95.468,VALID,0,VALID,20.4993,VALID,11,VALID,0.303125,
2011-10-15, 01:14:04,VALID,915.936,VALID,0,VALID,95.4757,VALID,0.107441,VALID,20.4993,VALID,271,VALID,0.475781,
2011-10-15, 01:15:04,VALID,915.896,VALID,0,VALID,95.5062,VALID,0,VALID,20.5414,VALID,271,VALID,0.340234,
2011-10-15, 01:16:04,VALID,915.881,VALID,0,VALID,95.5138,VALID,0,VALID,20.5009,VALID,271,VALID,0.239453,
2011-10-15, 01:17:04,VALID,915.852,VALID,0,VALID,95.4985,VALID,0,VALID,20.5414,VALID,271,VALID,0.346484,
2011-10-15, 01:18:04,VALID,915.843,VALID,0,VALID,95.5138,VALID,0,VALID,20.5204,VALID,271,VALID,0,
2011-10-15, 01:19:04,VALID,915.848,VALID,0,VALID,95.4833,VALID,0,VALID,20.582,VALID,271,VALID,0,
2011-10-15, 01:20:04,VALID,915.838,VALID,0,VALID,95.4375,VALID,0.107441,VALID,20.4977,VALID,271,VALID,0,
2011-10-15, 01:21:04,VALID,915.859,VALID,0,VALID,95.3994,VALID,0,VALID,20.5188,VALID,271,VALID,0,
2011-10-15, 01:22:04,VALID,915.872,VALID,0,VALID,95.3766,VALID,0,VALID,20.6015,VALID,271,VALID,0,
2011-10-15, 01:23:04,VALID,915.859,VALID,0,VALID,95.3003,VALID,0.107441,VALID,20.6437,VALID,271,VALID,0.223828,
2011-10-15, 01:24:04,VALID,915.818,VALID,0,VALID,95.2698,VALID,0,VALID,20.5399,VALID,271,VALID,0.169141,
2011-10-15, 01:25:04,VALID,915.778,VALID,0,VALID,95.247,VALID,0.107441,VALID,20.5188,VALID,271,VALID,0.135156,
2011-10-15, 01:26:04,VALID,915.78,VALID,0,VALID,95.2241,VALID,0.107441,VALID,20.5399,VALID,271,VALID,0,
2011-10-15, 01:27:04,VALID,915.766,VALID,0,VALID,95.2012,VALID,0.107441,VALID,20.5188,VALID,271,VALID,0,
2011-10-15, 01:28:04,VALID,915.778,VALID,0,VALID,95.1479,VALID,0,VALID,20.5204,VALID,271,VALID,0,
2011-10-15, 01:29:04,VALID,915.768,VALID,0,VALID,95.1097,VALID,0,VALID,20.5219,VALID,271,VALID,0,
2011-10-15, 01:30:04,VALID,915.753,VALID,0,VALID,95.0792,VALID,0,VALID,20.5024,VALID,271,VALID,0.133203,
2011-10-15, 01:31:04,VALID,915.75,VALID,0,VALID,94.9954,VALID,0,VALID,20.4829,VALID,271,VALID,0.0335938,
2011-10-15, 01:32:04,VALID,915.781,VALID,0,VALID,95.0183,VALID,0,VALID,20.4813,VALID,271,VALID,0.0207031,
2011-10-15, 01:33:04,VALID,915.843,VALID,0,VALID,94.9878,VALID,0,VALID,20.4829,VALID,271,VALID,0.00195313,
2011-10-15, 01:34:04,VALID,915.813,VALID,0,VALID,94.9801,VALID,0,VALID,20.4813,VALID,271,VALID,0.00507812,
2011-10-15, 01:35:04,VALID,915.799,VALID,0,VALID,94.9496,VALID,0,VALID,20.5024,VALID,271,VALID,0,
2011-10-15, 01:36:04,VALID,915.818,VALID,0,VALID,94.8963,VALID,0,VALID,20.4423,VALID,271,VALID,0.00585938,
2011-10-15, 01:37:04,VALID,915.795,VALID,0,VALID,94.8963,VALID,0,VALID,20.4423,VALID,271,VALID,0.172266,
2011-10-15, 01:38:04,VALID,915.807,VALID,0,VALID,94.8582,VALID,0,VALID,20.4423,VALID,271,VALID,0,
2011-10-15, 01:39:04,VALID,915.766,VALID,0,VALID,94.82,VALID,0,VALID,20.4033,VALID,271,VALID,0.334375,
2011-10-15, 01:40:04,VALID,915.768,VALID,0,VALID,94.7591,VALID,0,VALID,20.3643,VALID,271,VALID,0.262891,
2011-10-15, 01:41:04,VALID,915.762,VALID,0,VALID,94.7286,VALID,0,VALID,20.3464,VALID,271,VALID,0.411328,
2011-10-15, 01:42:04,VALID,915.709,VALID,0,VALID,94.7286,VALID,0,VALID,20.3074,VALID,271,VALID,0.277344,
2011-10-15, 01:43:04,VALID,915.698,VALID,0,VALID,94.7819,VALID,0,VALID,20.2668,VALID,271,VALID,0.05625,
2011-10-15, 01:44:04,VALID,915.666,VALID,0,VALID,94.8429,VALID,0,VALID,20.2473,VALID,271,VALID,0.127734,
2011-10-15, 01:45:04,VALID,915.67,VALID,0,VALID,94.8963,VALID,0,VALID,20.2083,VALID,271,VALID,0.616797,
2011-10-15, 01:46:04,VALID,915.661,VALID,0,VALID,94.9878,VALID,0,VALID,20.2309,VALID,271,VALID,0.766797,
2011-10-15, 01:47:04,VALID,915.663,VALID,0,VALID,95.0411,VALID,0,VALID,20.1318,VALID,271,VALID,0.673828,
2011-10-15, 01:48:04,VALID,915.667,VALID,0,VALID,95.1021,VALID,0,VALID,20.1123,VALID,271,VALID,0.401953,
2011-10-15, 01:49:04,VALID,915.638,VALID,0,VALID,95.1783,VALID,0,VALID,20.0733,VALID,271,VALID,0,
2011-10-15, 01:50:04,VALID,915.628,VALID,0,VALID,95.2775,VALID,0,VALID,20.0733,VALID,271,VALID,0.810938,
2011-10-15, 01:51:04,VALID,915.604,VALID,0,VALID,95.3613,VALID,0,VALID,20.0328,VALID,271,VALID,0.673828,
2011-10-15, 01:52:04,VALID,915.62,VALID,0,VALID,95.4528,VALID,0,VALID,20.0148,VALID,271,VALID,0.325,
2011-10-15, 01:53:04,VALID,915.604,VALID,0,VALID,95.5443,VALID,0,VALID,20.0148,VALID,271,VALID,0.791016,
2011-10-15, 01:54:04,VALID,915.622,VALID,0,VALID,95.6357,VALID,0,VALID,19.9953,VALID,271,VALID,0.769141,
2011-10-15, 01:55:04,VALID,915.643,VALID,0,VALID,95.7272,VALID,0,VALID,19.9953,VALID,271,VALID,0.723828,
2011-10-15, 01:56:04,VALID,915.644,VALID,0,VALID,95.834,VALID,0,VALID,20.0148,VALID,271,VALID,0.890234,
2011-10-15, 01:57:04,VALID,915.646,VALID,0,VALID,95.9178,VALID,0,VALID,20.0148,VALID,271,VALID,0.553906,
2011-10-15, 01:58:04,VALID,915.653,VALID,0,VALID,95.9864,VALID,0,VALID,19.9938,VALID,271,VALID,0.320703,
2011-10-15, 01:59:04,VALID,915.672,VALID,0,VALID,96.0627,VALID,0,VALID,20.0133,VALID,271,VALID,0.486719,
2011-10-15, 02:00:04,VALID,915.645,VALID,0,VALID,96.0932,VALID,0,VALID,20.0133,VALID,220,VALID,1.32969,
2011-10-15, 02:01:04,VALID,915.637,VALID,0,VALID,96.1923,VALID,0.107441,VALID,20.0328,VALID,211,VALID,1.11484,
2011-10-15, 02:02:04,VALID,915.668,VALID,0,VALID,96.2228,VALID,0,VALID,20.0133,VALID,187,VALID,1.1207,
2011-10-15, 02:03:04,VALID,915.682,VALID,0,VALID,96.2685,VALID,0,VALID,20.0328,VALID,195,VALID,0.915625,
2011-10-15, 02:04:04,VALID,915.637,VALID,0,VALID,96.2914,VALID,0,VALID,20.0328,VALID,195,VALID,0.764453,
2011-10-15, 02:05:04,VALID,915.616,VALID,0,VALID,96.2914,VALID,0,VALID,20.0343,VALID,195,VALID,0.418359,
2011-10-15, 02:06:04,VALID,915.635,VALID,0,VALID,96.2914,VALID,0,VALID,20.0133,VALID,197,VALID,1.17148,
2011-10-15, 02:07:04,VALID,915.622,VALID,0,VALID,96.3371,VALID,0.107441,VALID,20.0133,VALID,229,VALID,0.776563,
2011-10-15, 02:08:04,VALID,915.66,VALID,0,VALID,96.2837,VALID,0,VALID,19.9743,VALID,197,VALID,0.539063,
2011-10-15, 02:09:04,VALID,915.631,VALID,0,VALID,96.3066,VALID,0,VALID,19.9758,VALID,155,VALID,0.516016,
2011-10-15, 02:10:04,VALID,915.606,VALID,0,VALID,96.3219,VALID,0,VALID,19.9743,VALID,173,VALID,0.901953,
2011-10-15, 02:11:04,VALID,915.61,VALID,0,VALID,96.3219,VALID,0,VALID,19.9743,VALID,173,VALID,0.456641,
2011-10-15, 02:12:04,VALID,915.608,VALID,0,VALID,96.36,VALID,0,VALID,19.9533,VALID,173,VALID,0.821094,
2011-10-15, 02:13:04,VALID,915.609,VALID,0,VALID,96.3829,VALID,0,VALID,19.9548,VALID,173,VALID,0.363672,
2011-10-15, 02:14:04,VALID,915.605,VALID,0,VALID,96.3524,VALID,0,VALID,20.0584,VALID,173,VALID,0.195313,
2011-10-15, 02:15:04,VALID,915.609,VALID,0,VALID,96.3371,VALID,0,VALID,19.9968,VALID,173,VALID,0.0597656,
2011-10-15, 02:16:04,VALID,915.6,VALID,0,VALID,96.3066,VALID,0,VALID,19.9758,VALID,173,VALID,0,
2011-10-15, 02:17:04,VALID,915.589,VALID,0,VALID,96.2685,VALID,0,VALID,19.9563,VALID,173,VALID,0.162891,
2011-10-15, 02:18:04,VALID,915.583,VALID,0,VALID,96.2609,VALID,0,VALID,19.9773,VALID,173,VALID,0.0078125,
2011-10-15, 02:19:04,VALID,915.619,VALID,0,VALID,96.2228,VALID,0,VALID,19.9368,VALID,173,VALID,0,
2011-10-15, 02:20:04,VALID,915.578,VALID,0,VALID,96.1236,VALID,0,VALID,19.9173,VALID,173,VALID,0.344531,
2011-10-15, 02:21:04,VALID,915.588,VALID,0,VALID,95.9102,VALID,0,VALID,19.8198,VALID,173,VALID,0.425,
2011-10-15, 02:22:04,VALID,915.588,VALID,0,VALID,95.834,VALID,0,VALID,19.7613,VALID,173,VALID,0.609375,
2011-10-15, 02:23:04,VALID,915.568,VALID,0,VALID,95.9788,VALID,0,VALID,19.7823,VALID,173,VALID,0.609375,
2011-10-15, 02:24:04,VALID,915.564,VALID,0,VALID,95.9788,VALID,0,VALID,19.7223,VALID,173,VALID,0.582422,
2011-10-15, 02:25:04,VALID,915.552,VALID,0,VALID,96.055,VALID,0,VALID,19.7043,VALID,173,VALID,0.261328,
2011-10-15, 02:26:04,VALID,915.571,VALID,0,VALID,96.1084,VALID,0,VALID,19.6848,VALID,173,VALID,0,
2011-10-15, 02:27:04,VALID,915.567,VALID,0,VALID,96.1465,VALID,0,VALID,19.6653,VALID,173,VALID,0,
2011-10-15, 02:28:04,VALID,915.594,VALID,0,VALID,96.1923,VALID,0,VALID,19.6428,VALID,173,VALID,0.321875,
2011-10-15, 02:29:04,VALID,915.605,VALID,0,VALID,96.2837,VALID,0,VALID,19.6638,VALID,173,VALID,0.242188,
2011-10-15, 02:30:04,VALID,915.635,VALID,0,VALID,96.3219,VALID,0,VALID,19.6428,VALID,173,VALID,0.144531,
2011-10-15, 02:31:04,VALID,915.648,VALID,0,VALID,96.3676,VALID,0,VALID,19.6428,VALID,173,VALID,0,
2011-10-15, 02:32:04,VALID,915.644,VALID,0,VALID,96.3752,VALID,0,VALID,19.6443,VALID,173,VALID,0,
2011-10-15, 02:33:04,VALID,915.648,VALID,0,VALID,96.3371,VALID,0,VALID,19.6248,VALID,173,VALID,0.046875,
2011-10-15, 02:34:04,VALID,915.67,VALID,0,VALID,96.3219,VALID,0,VALID,19.6053,VALID,173,VALID,0,
2011-10-15, 02:35:04,VALID,915.676,VALID,0,VALID,96.3676,VALID,0,VALID,19.5843,VALID,173,VALID,0.310937,
2011-10-15, 02:36:04,VALID,915.695,VALID,0,VALID,96.3371,VALID,0,VALID,19.5648,VALID,173,VALID,0.215234,
2011-10-15, 02:37:04,VALID,915.695,VALID,0,VALID,96.3295,VALID,0,VALID,19.5663,VALID,173,VALID,0.266406,
2011-10-15, 02:38:04,VALID,915.705,VALID,0,VALID,96.3905,VALID,0,VALID,19.5453,VALID,173,VALID,0.228516,
2011-10-15, 02:39:04,VALID,915.705,VALID,0,VALID,96.5353,VALID,0,VALID,19.6053,VALID,173,VALID,0.215234,
2011-10-15, 02:40:04,VALID,915.711,VALID,0,VALID,96.5734,VALID,0,VALID,19.6053,VALID,173,VALID,0,
2011-10-15, 02:41:04,VALID,915.683,VALID,0,VALID,96.6039,VALID,0,VALID,19.6038,VALID,173,VALID,0,
2011-10-15, 02:42:04,VALID,915.685,VALID,0,VALID,96.5963,VALID,0,VALID,19.5843,VALID,173,VALID,0.230078,
2011-10-15, 02:43:04,VALID,915.701,VALID,0,VALID,96.5887,VALID,0,VALID,19.6053,VALID,173,VALID,0.0257812,
2011-10-15, 02:44:04,VALID,915.689,VALID,0,VALID,96.6497,VALID,0,VALID,19.6233,VALID,173,VALID,0.284766,
2011-10-15, 02:45:04,VALID,915.692,VALID,0,VALID,96.6497,VALID,0,VALID,19.6248,VALID,173,VALID,0,
2011-10-15, 02:46:04,VALID,915.694,VALID,0,VALID,96.7488,VALID,0,VALID,19.7058,VALID,173,VALID,0,
2011-10-15, 02:47:04,VALID,915.625,VALID,0,VALID,96.7716,VALID,0,VALID,19.7433,VALID,173,VALID,0,
2011-10-15, 02:48:04,VALID,915.636,VALID,0,VALID,96.3219,VALID,0,VALID,19.5843,VALID,173,VALID,0,
2011-10-15, 02:49:04,VALID,915.64,VALID,0,VALID,96.3524,VALID,0,VALID,19.4463,VALID,173,VALID,0,
2011-10-15, 02:50:04,VALID,915.627,VALID,0,VALID,96.3752,VALID,0,VALID,19.4478,VALID,173,VALID,0,
2011-10-15, 02:51:04,VALID,915.645,VALID,0,VALID,96.4057,VALID,0,VALID,19.4478,VALID,173,VALID,0.333594,
2011-10-15, 02:52:04,VALID,915.626,VALID,0,VALID,96.3905,VALID,0,VALID,19.4283,VALID,173,VALID,0.714844,
2011-10-15, 02:53:04,VALID,915.582,VALID,0,VALID,96.6039,VALID,0,VALID,19.4268,VALID,173,VALID,0.611328,
2011-10-15, 02:54:04,VALID,915.573,VALID,0,VALID,96.8631,VALID,0,VALID,19.6278,VALID,173,VALID,0.551172,
2011-10-15, 02:55:04,VALID,915.571,VALID,0,VALID,96.7335,VALID,0,VALID,19.6248,VALID,173,VALID,0.609766,
2011-10-15, 02:56:04,VALID,915.6,VALID,0,VALID,96.4286,VALID,0,VALID,19.4298,VALID,173,VALID,1.25898,
2011-10-15, 02:57:04,VALID,915.593,VALID,0,VALID,96.5582,VALID,0,VALID,19.4313,VALID,173,VALID,0.675391,
2011-10-15, 02:58:04,VALID,915.556,VALID,0,VALID,96.703,VALID,0.107441,VALID,19.3893,VALID,173,VALID,0.533203,
2011-10-15, 02:59:04,VALID,915.587,VALID,0,VALID,96.6954,VALID,0,VALID,19.4103,VALID,173,VALID,0.334375,
2011-10-15, 03:00:04,VALID,915.632,VALID,0,VALID,96.3066,VALID,0.107441,VALID,19.2304,VALID,173,VALID,0.388281,
2011-10-15, 03:01:04,VALID,915.667,VALID,0,VALID,96.3829,VALID,0.107441,VALID,19.1973,VALID,173,VALID,0.478516,
2011-10-15, 03:02:04,VALID,915.686,VALID,0,VALID,96.6344,VALID,0.107441,VALID,19.2572,VALID,173,VALID,0.0386719,
2011-10-15, 03:03:04,VALID,915.709,VALID,0,VALID,96.764,VALID,0.107441,VALID,19.1929,VALID,173,VALID,0.505469,
2011-10-15, 03:04:04,VALID,915.709,VALID,0,VALID,96.825,VALID,0,VALID,19.3143,VALID,173,VALID,0.48125,
2011-10-15, 03:05:04,VALID,915.745,VALID,0,VALID,96.8021,VALID,0,VALID,19.2933,VALID,173,VALID,0.65,
2011-10-15, 03:06:04,VALID,915.782,VALID,0,VALID,96.8936,VALID,0,VALID,19.3113,VALID,173,VALID,0.0121094,
2011-10-15, 03:07:04,VALID,915.771,VALID,0,VALID,96.8936,VALID,0,VALID,19.2904,VALID,173,VALID,0,
2011-10-15, 03:08:04,VALID,915.781,VALID,0,VALID,96.8707,VALID,0,VALID,19.2904,VALID,173,VALID,0,
2011-10-15, 03:09:04,VALID,915.752,VALID,0,VALID,96.9089,VALID,0.107441,VALID,19.3099,VALID,173,VALID,0.191797,
2011-10-15, 03:10:04,VALID,915.786,VALID,0,VALID,96.9089,VALID,0,VALID,19.3279,VALID,173,VALID,0.437891,
2011-10-15, 03:11:04,VALID,915.8,VALID,0,VALID,96.7488,VALID,0.107441,VALID,19.3338,VALID,173,VALID,0.420312,
2011-10-15, 03:12:04,VALID,915.786,VALID,0,VALID,96.8707,VALID,0,VALID,19.3323,VALID,173,VALID,0.407813,
2011-10-15, 03:13:04,VALID,915.786,VALID,0,VALID,96.9012,VALID,0,VALID,19.3308,VALID,173,VALID,0,
2011-10-15, 03:14:04,VALID,915.791,VALID,0,VALID,96.8326,VALID,0,VALID,19.3338,VALID,173,VALID,0.510156,
2011-10-15, 03:15:04,VALID,915.796,VALID,0,VALID,96.9241,VALID,0.107441,VALID,19.3294,VALID,173,VALID,0.258203,
2011-10-15, 03:16:04,VALID,915.754,VALID,0,VALID,96.947,VALID,0.107441,VALID,19.4298,VALID,173,VALID,0.225,
2011-10-15, 03:17:04,VALID,915.775,VALID,0,VALID,96.9546,VALID,0,VALID,19.4074,VALID,173,VALID,0.430859,
2011-10-15, 03:18:04,VALID,915.814,VALID,0,VALID,96.9394,VALID,0.107441,VALID,19.3713,VALID,173,VALID,0.236328,
2011-10-15, 03:19:04,VALID,915.805,VALID,0,VALID,96.7488,VALID,0.107441,VALID,19.2738,VALID,173,VALID,0.150781,
2011-10-15, 03:20:04,VALID,915.817,VALID,0,VALID,96.8174,VALID,0.107441,VALID,19.2528,VALID,173,VALID,0.00585938,
2011-10-15, 03:21:04,VALID,915.791,VALID,0,VALID,96.8174,VALID,0.107441,VALID,19.2723,VALID,173,VALID,0,
2011-10-15, 03:22:04,VALID,915.841,VALID,0,VALID,96.9546,VALID,0,VALID,19.3308,VALID,196,VALID,0.655469,
2011-10-15, 03:23:04,VALID,915.856,VALID,0,VALID,96.9775,VALID,0,VALID,19.4283,VALID,210,VALID,0.337109,
2011-10-15, 03:24:04,VALID,915.85,VALID,0,VALID,96.9775,VALID,0,VALID,19.4103,VALID,210,VALID,0.602344,
2011-10-15, 03:25:04,VALID,915.878,VALID,0,VALID,96.9851,VALID,0,VALID,19.4298,VALID,210,VALID,0.348437,
2011-10-15, 03:26:04,VALID,915.912,VALID,0,VALID,96.9851,VALID,0.107441,VALID,19.3698,VALID,210,VALID,0.333984,
2011-10-15, 03:27:04,VALID,915.908,VALID,0,VALID,96.9622,VALID,0.107441,VALID,19.3308,VALID,210,VALID,0.316797,
2011-10-15, 03:28:04,VALID,915.893,VALID,0,VALID,96.947,VALID,0.107441,VALID,19.3518,VALID,210,VALID,0.199609,
2011-10-15, 03:29:04,VALID,915.894,VALID,0,VALID,96.9394,VALID,0,VALID,19.3518,VALID,210,VALID,0.228906,
2011-10-15, 03:30:04,VALID,915.833,VALID,0,VALID,96.9546,VALID,0,VALID,19.3308,VALID,210,VALID,0.251563,
2011-10-15, 03:31:04,VALID,915.864,VALID,0,VALID,96.9775,VALID,0,VALID,19.4103,VALID,210,VALID,0.424219,
2011-10-15, 03:32:04,VALID,915.852,VALID,0,VALID,97.0308,VALID,0,VALID,19.4493,VALID,210,VALID,0.582812,
2011-10-15, 03:33:04,VALID,915.866,VALID,0,VALID,97.0308,VALID,0,VALID,19.4688,VALID,210,VALID,0.610156,
2011-10-15, 03:34:04,VALID,915.848,VALID,0,VALID,97.0461,VALID,0,VALID,19.5273,VALID,210,VALID,0.416016,
2011-10-15, 03:35:04,VALID,915.859,VALID,0,VALID,97.0613,VALID,0.107441,VALID,19.5273,VALID,210,VALID,0.442969,
2011-10-15, 03:36:04,VALID,915.832,VALID,0,VALID,97.0537,VALID,0,VALID,19.4883,VALID,210,VALID,0.697266,
2011-10-15, 03:37:04,VALID,915.838,VALID,0,VALID,97.0461,VALID,0.107441,VALID,19.4883,VALID,210,VALID,0.592188,
2011-10-15, 03:38:04,VALID,915.855,VALID,0,VALID,97.0308,VALID,0,VALID,19.4103,VALID,210,VALID,0.600391,
2011-10-15, 03:39:04,VALID,915.852,VALID,0,VALID,96.9698,VALID,0,VALID,19.3128,VALID,210,VALID,0.263281,
2011-10-15, 03:40:04,VALID,915.857,VALID,0,VALID,96.947,VALID,0,VALID,19.2723,VALID,210,VALID,0.423047,
2011-10-15, 03:41:04,VALID,915.852,VALID,0,VALID,96.9622,VALID,0.107441,VALID,19.2738,VALID,210,VALID,0.467187,
2011-10-15, 03:42:04,VALID,915.832,VALID,0,VALID,97.008,VALID,0,VALID,19.3128,VALID,210,VALID,0.548828,
2011-10-15, 03:43:04,VALID,915.828,VALID,0,VALID,97.0308,VALID,0,VALID,19.3323,VALID,210,VALID,0.650781,
2011-10-15, 03:44:04,VALID,915.818,VALID,0,VALID,97.0308,VALID,0,VALID,19.2933,VALID,210,VALID,0.838281,
2011-10-15, 03:45:04,VALID,915.805,VALID,0,VALID,97.0385,VALID,0,VALID,19.2933,VALID,210,VALID,0.642578,
2011-10-15, 03:46:04,VALID,915.798,VALID,0,VALID,97.0461,VALID,0,VALID,19.2738,VALID,210,VALID,0.809766,